User: anonymous   Login
Location: Hackbridge
(51.3833°N, 0.1500°W)
Time: 04:05:49
(UTC+00:00)
Language:

Cosmos 1328 - Orbit

View from above orbital plane
View from above orbital plane
View from above satellite
View from above satellite

Ground track
Ground track

The orbit data is extracted from the following two-line orbital elements,

1 12987U 81117A   19344.01667983  .00001101  00000-0  69599-4 0  9991
2 12987  82.5178  78.8806 0013209  21.4726 338.7053 15.07985570 68981
Epoch (UTC): 10 December 2019 00:24:01
Eccentricity: 0.0013209
inclination: 82.5178°
perigee height: 533 km
apogee height: 551 km
right ascension of ascending node: 78.8806°
argument of perigee: 21.4726°
revolutions per day: 15.07985570
mean anomaly at epoch: 338.7053°
orbit number at epoch: 6898

The dashed part of the orbit path shows where the satellite is in the earth's shadow,  

DLR